Time_in_sec,Mx,My,Mz
1326901793.17754793,-0.82588351,-0.44238332,-0.55374515
1326901793.22457719,-0.82551724,-0.43531409,-0.55089051
1326901793.27684093,-0.82569867,-0.43579832,-0.54964274
1326901793.32454538,-0.82461178,-0.43485287,-0.55059409
1326901793.37755013,-0.82485592,-0.43449768,-0.55035895
1326901793.42454433,-0.82356077,-0.43392357,-0.54991692
1326901793.47665238,-0.82508236,-0.43461868,-0.54986864
1326901793.52551579,-0.82275790,-0.43296996,-0.55138528
1326901793.57664299,-0.82507539,-0.43556574,-0.54986161
1326901793.61658645,-0.82511461,-0.43399853,-0.55263376
1326901793.67464924,-0.82500064,-0.44165844,-0.55608547
1326901793.72464371,-0.82411796,-0.43625072,-0.55331677
1326901793.77752018,-0.82536036,-0.43638495,-0.55049831
1326901793.82453012,-0.82406282,-0.43413329,-0.55207449
1326901793.86453295,-0.82536995,-0.43508273,-0.55050796
1326901793.92548871,-0.82693398,-0.44234407,-0.55656111
1326901793.97764230,-0.82497025,-0.43624917,-0.55261022
1326901794.02482939,-0.82399875,-0.43412256,-0.55319983
1326901794.07756925,-0.82545137,-0.43554011,-0.55201405
1326901794.11450601,-0.82332855,-0.43354425,-0.55254072
1326901794.17790127,-0.82446200,-0.44249666,-0.55567431
1326901794.22462845,-0.82447433,-0.43504664,-0.55497473
1326901794.27664495,-0.82600868,-0.43505299,-0.55280000
1326901794.32552314,-0.82316458,-0.43461648,-0.55202270
1326901794.37758946,-0.82536256,-0.43600693,-0.55275846
1326901794.42467213,-0.82460505,-0.43376726,-0.55260795
1326901794.47750854,-0.82635063,-0.43588427,-0.55218554
1326901794.52466154,-0.82362360,-0.43402982,-0.55104828
1326901794.57372069,-0.82573700,-0.43434948,-0.55241406
1326901794.61415839,-0.82333475,-0.43366128,-0.55266565
1326901794.67709613,-0.82456195,-0.44235942,-0.55743641
1326901794.72551608,-0.82613170,-0.43562067,-0.55506003
1326901794.77652621,-0.82630342,-0.43646139,-0.55368388
1326901794.82450891,-0.82476664,-0.43494162,-0.55336088
1326901794.86551285,-0.82434279,-0.43363011,-0.55472678
1326901794.91397142,-0.82475078,-0.44175535,-0.55845416
1326901794.96562243,-0.82361037,-0.44032431,-0.56066012
1326901795.01666307,-0.82597762,-0.44104210,-0.55752194
1326901795.06704926,-0.82439429,-0.43808964,-0.55846059
1326901795.11358237,-0.82336646,-0.43881094,-0.55840015
1326901795.16556549,-0.82481062,-0.43937963,-0.55922645
1326901795.21660352,-0.82632381,-0.44033575,-0.55679309
1326901795.26463318,-0.82464981,-0.43714118,-0.55835563
1326901795.31728697,-0.82585847,-0.43985963,-0.55752385
1326901795.36466074,-0.82549834,-0.43853599,-0.56002194
1326901795.42551374,-0.82542133,-0.43843243,-0.55863899
1326901795.46607614,-0.82582110,-0.43821171,-0.55665547
1326901795.51750970,-0.82691312,-0.44126114,-0.55832332
1326901795.56551600,-0.82586700,-0.44054437,-0.56002772
1326901795.61664319,-0.82553512,-0.43937945,-0.55851305
1326901795.66551757,-0.82522392,-0.43724191,-0.55951458
1326901795.71754026,-0.82645386,-0.43995634,-0.55906016
1326901795.76534152,-0.82400233,-0.43724492,-0.56045198
1326901795.81721973,-0.82567537,-0.43961215,-0.55876982
1326901795.86457038,-0.82601744,-0.43746504,-0.56005740
1326901795.91750193,-0.82594341,-0.43984348,-0.55903345
1326901795.96453428,-0.82536155,-0.43782976,-0.55976868
1326901796.01663613,-0.82569921,-0.43925297,-0.55914986
1326901796.06551313,-0.82458192,-0.43852681,-0.56185377
1326901796.11691236,-0.82442546,-0.43962052,-0.55920404
1326901796.16464353,-0.82597595,-0.43830046,-0.55942225
1326901796.21706700,-0.82626146,-0.44008824,-0.55792016
1326901796.27673483,-0.82539880,-0.43853199,-0.56051821
1326901796.31750965,-0.82607138,-0.43686372,-0.56094241
1326901796.36555600,-0.82596165,-0.44017172,-0.56166577
1326901796.41934848,-0.82543355,-0.44053507,-0.56138396
1326901796.46552324,-0.82578003,-0.43779606,-0.56267589
1326901796.51753306,-0.82761800,-0.43991840,-0.56163138
1326901796.56450486,-0.82466191,-0.43829808,-0.56098181
1326901796.61694074,-0.82545829,-0.44005749,-0.56176484
1326901796.66566253,-0.82493395,-0.43791464,-0.56350738
1326901796.71751189,-0.82668799,-0.44088048,-0.56107289
1326901796.76566148,-0.82358563,-0.43687776,-0.56206244
1326901796.81666446,-0.82541639,-0.44087005,-0.56338727
1326901796.86551452,-0.82525468,-0.43874997,-0.56251550
1326901796.91665721,-0.82602334,-0.43850493,-0.56255865
1326901796.96463060,-0.82505381,-0.43803298,-0.56338757
1326901797.01675653,-0.82609123,-0.43993357,-0.56167442
1326901797.06491518,-0.82431519,-0.43803585,-0.56384939
1326901797.11750078,-0.82560897,-0.43886960,-0.56203210
1326901797.16478801,-0.82572842,-0.43896508,-0.56416988
1326901797.21804166,-0.82602739,-0.43899998,-0.56042343
1326901797.26549745,-0.82474858,-0.43804517,-0.56249321
1326901797.31367135,-0.82601094,-0.43827087,-0.56230879
1326901797.36468410,-0.82577926,-0.43886015,-0.56279385
1326901797.41658354,-0.82580799,-0.43887761,-0.56103951
1326901797.46542430,-0.82530588,-0.43755805,-0.56327909
1326901797.51379704,-0.82605505,-0.44100440,-0.56116331
1326901797.56452417,-0.82471746,-0.43651426,-0.56174976
1326901797.61655045,-0.82726943,-0.43894723,-0.56437844
1326901797.66564989,-0.82484102,-0.43805051,-0.56187105
1326901797.71753550,-0.82469398,-0.43971059,-0.56172609
1326901797.76453543,-0.82529485,-0.43801007,-0.56540734
1326901797.81651211,-0.82523924,-0.43884817,-0.56452060
1326901797.86461687,-0.82608098,-0.43932149,-0.56368476
1326901797.91349959,-0.82512230,-0.43745181,-0.56226665
1326901797.96452785,-0.82468885,-0.43744251,-0.56362289
1326901798.01653743,-0.82636732,-0.44099087,-0.56218356
1326901798.06599069,-0.82538426,-0.43851182,-0.56252414
1326901798.11652422,-0.82585961,-0.43754447,-0.56406152
1326901798.16452169,-0.82587838,-0.43884128,-0.56455505
1326901798.21661353,-0.82663876,-0.43980294,-0.56233191
1326901798.26552558,-0.82602817,-0.43777177,-0.56482148
1326901798.31755519,-0.82488799,-0.43839625,-0.56274903
1326901798.36559296,-0.82583600,-0.43979508,-0.56391907
1326901798.41663814,-0.82485521,-0.43804783,-0.56212264
1326901798.46952963,-0.82510251,-0.43814194,-0.56426734
1326901798.51790047,-0.82685828,-0.44087103,-0.56183457
1326901798.56453967,-0.82574958,-0.43801534,-0.56442851
1326901798.61726570,-0.82571602,-0.43873101,-0.56392002
1326901798.66456532,-0.82485420,-0.43722048,-0.56200302
1326901798.71750283,-0.82787812,-0.44026947,-0.56176835
1326901798.76558924,-0.82588845,-0.43850765,-0.56242597
1326901798.81716728,-0.82511008,-0.43910918,-0.56225437
1326901798.86552453,-0.82461238,-0.43830752,-0.56010121
1326901798.91652536,-0.82687479,-0.43862176,-0.56185126
1326901798.96462679,-0.82564640,-0.43770325,-0.56028658
1326901799.01750231,-0.82548285,-0.43879831,-0.55751103
1326901799.06462717,-0.82483351,-0.43819311,-0.55948687
1326901799.11788750,-0.82595617,-0.43915468,-0.55690700
1326901799.16564584,-0.82306278,-0.43669492,-0.55726993
1326901799.21651959,-0.82613754,-0.43963894,-0.55565923
1326901799.26551199,-0.82593131,-0.43868655,-0.55640727
1326901799.31663632,-0.82605207,-0.43868652,-0.55628836
1326901799.36497235,-0.82475507,-0.43740347,-0.55572581
1326901799.41701674,-0.82408863,-0.43824306,-0.55530781
1326901799.46564841,-0.82478857,-0.43668777,-0.55623430
1326901799.51750183,-0.82703853,-0.43974635,-0.55583245
1326901799.56560063,-0.82465929,-0.43881735,-0.55646318
1326901799.61650324,-0.82650238,-0.43928370,-0.55530518
1326901799.66552472,-0.82453305,-0.43763626,-0.55633926
1326901799.71681905,-0.82621938,-0.44011918,-0.55490780
1326901799.76481390,-0.82402796,-0.43775877,-0.55643660
1326901799.81748104,-0.82564896,-0.43751222,-0.55577326
1326901799.86480999,-0.82480037,-0.43893167,-0.55672085
1326901799.91803503,-0.82610744,-0.43988109,-0.55515426
1326901799.96451139,-0.82580364,-0.43681937,-0.55390525
1326901800.01656222,-0.82473260,-0.43861285,-0.55320793
1326901800.06553411,-0.82409024,-0.43706056,-0.55519074
1326901800.11396551,-0.82647145,-0.43964425,-0.55479932
1326901800.16473722,-0.82456189,-0.43859944,-0.55470371
1326901800.21767879,-0.82437885,-0.43946177,-0.55155253
1326901800.26472497,-0.82466292,-0.43647525,-0.55397159
1326901800.31752205,-0.82511598,-0.43766299,-0.55310982
1326901800.36456871,-0.82401437,-0.43873006,-0.55404627
1326901800.41776252,-0.82486331,-0.44014776,-0.55345500
1326901800.46552277,-0.82428133,-0.43718833,-0.55407143
1326901800.51374221,-0.82658803,-0.43836755,-0.55218095
1326901800.56458735,-0.82409799,-0.43897352,-0.55329657
1326901800.61709619,-0.82585311,-0.43978831,-0.55288380
1326901800.67663360,-0.82379472,-0.43671626,-0.55442476
1326901800.71351767,-0.82353926,-0.43485045,-0.55191582
1326901800.76553345,-0.82441992,-0.43860349,-0.55444521
1326901800.82552099,-0.82610297,-0.43952730,-0.55503112
1326901800.86551356,-0.82540143,-0.43552667,-0.55339098
1326901800.92455029,-0.82459706,-0.44062537,-0.55331188
1326901800.96464729,-0.82563561,-0.43756062,-0.55100656
1326901801.01352596,-0.82597846,-0.44108781,-0.55300689
1326901801.06605673,-0.82370752,-0.43992472,-0.55326885
1326901801.11757064,-0.82585829,-0.43907803,-0.55288911
1326901801.16550660,-0.82496029,-0.43752852,-0.55485815
1326901801.21734691,-0.82636034,-0.43945187,-0.55053067
1326901801.26551867,-0.82497835,-0.43707517,-0.55285567
1326901801.32552719,-0.82528579,-0.43779480,-0.55161309
1326901801.36465240,-0.82421517,-0.43568704,-0.55044150
1326901801.41656494,-0.82533562,-0.43967679,-0.55273128
1326901801.47729135,-0.82511872,-0.43825355,-0.55323124
1326901801.51750851,-0.82397503,-0.43542746,-0.55293858
1326901801.56527591,-0.82422751,-0.43873540,-0.55330521
1326901801.61655474,-0.82595694,-0.43920043,-0.55239189
1326901801.66551733,-0.82511759,-0.43648052,-0.55299276
1326901801.71653676,-0.82545763,-0.43958125,-0.55035573
1326901801.77749205,-0.82508940,-0.43743163,-0.55260837
1326901801.81751442,-0.82453901,-0.43602595,-0.55171067
1326901801.86954379,-0.82367277,-0.43792164,-0.55240315
1326901801.92551517,-0.82590950,-0.43788612,-0.55365264
1326901801.97705507,-0.82632113,-0.43709502,-0.54954183
1326901802.01663566,-0.82542282,-0.43365407,-0.55127329
1326901802.06550550,-0.82457185,-0.44013438,-0.55506974
1326901802.11696601,-0.82537097,-0.43967006,-0.55336028
1326901802.17753577,-0.82406563,-0.43848386,-0.55492860
1326901802.21771479,-0.82525164,-0.43659618,-0.55312461
1326901802.28063440,-0.82557297,-0.43823597,-0.55450994
1326901802.31750703,-0.82413536,-0.43388307,-0.55333430
1326901802.36478376,-0.82339048,-0.44050729,-0.55450183
1326901802.42566013,-0.82566661,-0.44096008,-0.55424505
1326901802.47730517,-0.82593477,-0.43837714,-0.55189484
1326901802.51663327,-0.82358593,-0.43330476,-0.55255628
1326901802.56466126,-0.82425916,-0.44012502,-0.55630708
1326901802.61664176,-0.82588023,-0.44082418,-0.55576247
1326901802.67710948,-0.82500255,-0.43955311,-0.55359209
1326901802.72947145,-0.82428020,-0.43541527,-0.55383301
1326901802.77802062,-0.82499909,-0.43721235,-0.55097467
1326901802.82480478,-0.82588321,-0.43280780,-0.55255812
1326901802.86628151,-0.82564855,-0.43483919,-0.55090088
1326901802.92465162,-0.82722622,-0.44129333,-0.55482846
1326901802.96564460,-0.82751912,-0.43541852,-0.55024517
1326901803.02471900,-0.82660526,-0.44179258,-0.55291033
1326901803.07652664,-0.82547390,-0.43544054,-0.55013484
1326901803.12553096,-0.82428622,-0.43475071,-0.54932314
1326901803.17665768,-0.82619482,-0.43496817,-0.54929912
1326901803.22565413,-0.82310283,-0.43252325,-0.54839712
1326901803.27463698,-0.82596701,-0.43510678,-0.54753011
1326901803.32462907,-0.82380205,-0.43203208,-0.54944152
1326901803.37751842,-0.82478225,-0.43297485,-0.54886073
1326901803.41357064,-0.82400477,-0.43345800,-0.54869002
1326901803.46564078,-0.82500774,-0.43884280,-0.55359733
1326901803.52548981,-0.82637930,-0.44264013,-0.55126184
1326901803.56551623,-0.82604051,-0.43568391,-0.54890954
1326901803.61656117,-0.82564384,-0.43933234,-0.55137080
1326901803.66551805,-0.82415664,-0.43780315,-0.55192840
1326901803.71389437,-0.82714373,-0.44017273,-0.54868668
1326901803.77354240,-0.82496148,-0.43648729,-0.55248266
1326901803.81350565,-0.82556635,-0.43544590,-0.54951268
1326901803.87357759,-0.82513672,-0.43780020,-0.55122882
1326901803.92576957,-0.82567006,-0.43391228,-0.54890198
1326901803.97771406,-0.82567698,-0.43594360,-0.54700696
1326901804.02557254,-0.82522094,-0.43227386,-0.54750973
1326901804.07758975,-0.82645607,-0.43427801,-0.54706061
1326901804.12462330,-0.82412803,-0.43215710,-0.54845494
1326901804.17767262,-0.82669061,-0.43522501,-0.54681581
1326901804.22454262,-0.82404655,-0.43169972,-0.54694885
1326901804.27716422,-0.82631421,-0.43522778,-0.54692090
1326901804.32551503,-0.82435089,-0.43180594,-0.54784238
1326901804.37689209,-0.82491142,-0.43287796,-0.54661095
1326901804.42461491,-0.82463831,-0.43132427,-0.54836285
1326901804.47760367,-0.82683945,-0.43332815,-0.54696250
1326901804.52454519,-0.82398343,-0.43251631,-0.54819381
1326901804.57420230,-0.82590181,-0.43332300,-0.54841697
1326901804.62552881,-0.82379150,-0.43250695,-0.54931223
1326901804.67686749,-0.82648802,-0.43474481,-0.54768610
1326901804.72549176,-0.82427806,-0.43297902,-0.54895890
1326901804.77432942,-0.82663792,-0.43462101,-0.54807132
1326901804.82450294,-0.82443666,-0.43167138,-0.54935288
1326901804.86551046,-0.82537013,-0.43321416,-0.54801285
1326901804.92457414,-0.82586116,-0.44061431,-0.55312932
1326901804.97793603,-0.82631642,-0.43484977,-0.54918104
1326901805.02552915,-0.82395321,-0.43462703,-0.55018395
1326901805.07653952,-0.82675642,-0.43388915,-0.55008942
1326901805.12678838,-0.82514089,-0.43250260,-0.54838169
1326901805.17723012,-0.82585406,-0.43404138,-0.54765689
1326901805.22555804,-0.82369554,-0.43297511,-0.54993081
1326901805.27750683,-0.82662475,-0.43545103,-0.54793936
1326901805.32502508,-0.82443941,-0.43226194,-0.54947430
1326901805.37748909,-0.82738137,-0.43388498,-0.54987228
1326901805.42451143,-0.82481456,-0.43235469,-0.55162585
1326901805.47749257,-0.82563818,-0.43344548,-0.54827648
1326901805.52551246,-0.82380205,-0.43203208,-0.54944152
1326901805.57765532,-0.82624424,-0.43401304,-0.55006093
1326901805.61692810,-0.82587928,-0.43342257,-0.55029619
1326901805.67749381,-0.82484698,-0.44036433,-0.55545920
1326901805.72488427,-0.82457751,-0.43270856,-0.55198681
1326901805.77752161,-0.82594013,-0.43579826,-0.54940498
1326901805.82454062,-0.82380313,-0.43380511,-0.54967999
1326901805.86564183,-0.82500833,-0.43307301,-0.55062795
1326901805.92548823,-0.82590896,-0.44084165,-0.55400813
1326901805.97737932,-0.82587570,-0.43687448,-0.54839063
1326901806.02463269,-0.82499605,-0.43378466,-0.55049688
1326901806.07678533,-0.82583332,-0.43390417,-0.54953790
1326901806.12466240,-0.82331121,-0.43309763,-0.54990923
1326901806.17750955,-0.82609135,-0.43557894,-0.54753345
1326901806.22474289,-0.82511479,-0.43212995,-0.55013865
1326901806.27670383,-0.82322216,-0.43559712,-0.54863286
1326901806.32809401,-0.82538199,-0.43247965,-0.55040145
1326901806.37658811,-0.82443792,-0.43439016,-0.54971009
1326901806.42466211,-0.82371157,-0.43368137,-0.55030298
1326901806.47751474,-0.82630140,-0.43497086,-0.54892856
1326901806.52485085,-0.82466114,-0.43295202,-0.55123717
1326901806.57353568,-0.82459217,-0.43367442,-0.55009967
1326901806.62559175,-0.82469159,-0.43273273,-0.54948455
1326901806.67653632,-0.82339770,-0.43487740,-0.54939979
1326901806.72551322,-0.82396191,-0.43344322,-0.55019271
1326901806.77350974,-0.82561904,-0.43604991,-0.54825717
1326901806.82459164,-0.82542270,-0.43270835,-0.55115449
1326901806.86550045,-0.82354474,-0.43321732,-0.54954475
1326901806.92457843,-0.82549167,-0.44248432,-0.55585533
1326901806.97751808,-0.82510388,-0.43650606,-0.55048364
1326901807.02451944,-0.82453650,-0.43340272,-0.55361009
1326901807.07750869,-0.82358378,-0.43368274,-0.55029607
1326901807.11750031,-0.82550550,-0.43307021,-0.55040395
1326901807.17751241,-0.82523972,-0.43998086,-0.55786586
1326901807.22534156,-0.82486343,-0.43435508,-0.55274314
1326901807.27695870,-0.82562470,-0.43519837,-0.55052090
1326901807.32463002,-0.82471800,-0.43483269,-0.55248111
1326901807.37750840,-0.82426286,-0.43496865,-0.55120152
1326901807.42453098,-0.82509077,-0.43435770,-0.55225372
1326901807.47753334,-0.82610947,-0.43496147,-0.55004698
1326901807.52932620,-0.82456791,-0.43401077,-0.55197716
1326901807.58030128,-0.82447416,-0.43426505,-0.55034000
1326901807.61756063,-0.82554096,-0.43400919,-0.55115175
1326901807.67651868,-0.82524657,-0.44201219,-0.55597085
1326901807.72456050,-0.82401866,-0.43437815,-0.55131793
1326901807.77750850,-0.82546151,-0.43520647,-0.54988497
1326901807.82453680,-0.82350981,-0.43308279,-0.55117416
1326901807.86554098,-0.82255769,-0.43416730,-0.55023742
1326901807.92551160,-0.82473701,-0.44178092,-0.55594498
1326901807.97654724,-0.82510918,-0.43674150,-0.55060768
1326901808.02460122,-0.82356787,-0.43392220,-0.55004275
1326901808.07752013,-0.82486111,-0.43378738,-0.55036420
1326901808.12452102,-0.82478720,-0.43318743,-0.55124229
1326901808.17662787,-0.82441062,-0.43522286,-0.54932654
1326901808.22451520,-0.82360500,-0.43367872,-0.55067348
1326901808.27695560,-0.82548589,-0.43581587,-0.54812622
1326901808.32556319,-0.82455158,-0.43439147,-0.54946542
1326901808.37754726,-0.82533729,-0.43568003,-0.55000037
1326901808.42563558,-0.82381815,-0.43368405,-0.54993248
1326901808.47754622,-0.82589930,-0.43462387,-0.54853314
1326901808.52463818,-0.82382089,-0.43427461,-0.55005389
1326901808.57661772,-0.82411581,-0.43381447,-0.54844266
1326901808.61750841,-0.82382250,-0.43309212,-0.54993683
1326901808.67665195,-0.82466412,-0.44200829,-0.55694276
1326901808.72556806,-0.82543355,-0.43412489,-0.55152136
1326901808.77856827,-0.82562846,-0.43661627,-0.55076194
1326901808.82464409,-0.82270128,-0.43298075,-0.55037886
1326901808.87752748,-0.82359397,-0.43429485,-0.54828578
1326901808.92463136,-0.82554370,-0.43459976,-0.55127317
1326901808.97750783,-0.82323200,-0.43618634,-0.54888004
1326901809.02462649,-0.82433850,-0.43533185,-0.55032521
1326901809.07656050,-0.82383507,-0.43427190,-0.55030549
1326901809.12780881,-0.82545561,-0.43400249,-0.55189967
1326901809.17751098,-0.82359308,-0.43441322,-0.54828489
1326901809.22557473,-0.82370353,-0.43285540,-0.55005753
1326901809.27750707,-0.82496911,-0.43464023,-0.54785579
1326901809.32462883,-0.82309139,-0.43311653,-0.54826695
1326901809.37664914,-0.82513046,-0.43392318,-0.54837120
1326901809.42555690,-0.82289135,-0.43228117,-0.54913992
1326901809.47755170,-0.82421547,-0.43476418,-0.54806513
1326901809.52548695,-0.82563418,-0.43295044,-0.55041170
1326901809.57654238,-0.82503992,-0.43462676,-0.54911381
1326901809.61755395,-0.82368279,-0.43382803,-0.54754138
1326901809.67384338,-0.82368368,-0.44028389,-0.55288881
1326901809.72551870,-0.82382339,-0.43297374,-0.54993773
1326901809.77350855,-0.82386893,-0.43655747,-0.54665440
1326901809.82552266,-0.82416201,-0.43522426,-0.54943854
1326901809.86447954,-0.82458556,-0.43369865,-0.54771632
1326901809.92712450,-0.82299936,-0.43970829,-0.55197811
1326901809.97781491,-0.82481682,-0.43701062,-0.54770559
1326901810.02550268,-0.82433373,-0.43214092,-0.54984564
1326901810.07753062,-0.82207948,-0.43359837,-0.54845983
1326901810.11759710,-0.82404840,-0.43240869,-0.54706937
1326901810.17751074,-0.82558936,-0.43896508,-0.55262458
1326901810.22548699,-0.82235646,-0.43453729,-0.54896986
1326901810.27751637,-0.82445937,-0.43644166,-0.54580915
1326901810.32551360,-0.82513845,-0.43380344,-0.54849786
1326901810.37665677,-0.82393271,-0.43356699,-0.54968864
1326901810.42449737,-0.82285076,-0.43299818,-0.54850560
1326901810.47750139,-0.82565111,-0.43464813,-0.54638755
1326901810.52462769,-0.82503980,-0.43368104,-0.54899502
1326901810.57751870,-0.82406366,-0.43417904,-0.54755944
1326901810.62522578,-0.82619411,-0.43321800,-0.54680312
1326901810.67760682,-0.82312602,-0.43417388,-0.54901385
1326901810.72556663,-0.82421970,-0.43322656,-0.54795074
1326901810.77658701,-0.82497424,-0.43690833,-0.54595900
1326901810.82462788,-0.82568252,-0.43414634,-0.54915184
1326901810.86553216,-0.82343900,-0.43445587,-0.54663831
1326901810.92564821,-0.82520497,-0.44311830,-0.55419588
1326901810.97749615,-0.82329196,-0.43611559,-0.54649335
1326901811.02570224,-0.82356536,-0.43360451,-0.54878265
